Total_Precipitation_Accumulation
0.02 0.06 0.26 0.48 0.87 1.63 1.57 0.95 0.45 0.26 0.24 0.30 0.37 0.42 0.43 0.40 0.54 0.92 0.45 0.20 0.08 0.04 0.04 0.09 0.14 0.13 0.15 0.19 0.20 0.22 0.23 0.20 0.20 0.24 0.30 0.36 0.30 0.25 0.24 0.26 0.25 0.24 0.27 0.25 0.25 0.24 0.23 0.26 0.25
0.02 0.12 0.31 0.52 1.23 1.77 1.29 1.08 0.38 0.22 0.20 0.30 0.37 0.41 0.40 0.40 0.25 0.27 0.30 0.24 0.13 0.08 0.04 0.05 0.11 0.14 0.13 0.17 0.21 0.23 0.20 0.19 0.21 0.28 0.29 0.27 0.21 0.21 0.20 0.22 0.24 0.26 0.25 0.22 0.21 0.20 0.18 0.20 0.21
0.06 0.17 0.36 0.53 0.94 1.08 0.71 0.56 0.25 0.20 0.24 0.29 0.36 0.37 0.39 0.46 0.29 0.26 0.27 0.21 0.15 0.08 0.06 0.07 0.10 0.11 0.13 0.15 0.19 0.21 0.20 0.18 0.20 0.26 0.27 0.25 0.20 0.22 0.23 0.23 0.23 0.24 0.21 0.18 0.18 0.18 0.17 0.19 0.23
0.07 0.17 0.29 0.43 0.47 0.52 0.44 0.30 0.18 0.16 0.21 0.28 0.32 0.32 0.42 0.38 0.25 0.32 0.35 0.34 0.18 0.11 0.07 0.10 0.12 0.12 0.13 0.15 0.17 0.22 0.25 0.22 0.22 0.24 0.26 0.27 0.24 0.28 0.27 0.21 0.21 0.23 0.22 0.19 0.18 0.18 0.18 0.19 0.23
0.08 0.22 0.31 0.33 0.29 0.37 0.37 0.28 0.20 0.14 0.15 0.28 0.38 0.50 0.54 0.39 0.28 0.41 0.43 0.43 0.26 0.15 0.09 0.12 0.15 0.14 0.13 0.13 0.16 0.18 0.22 0.24 0.27 0.27 0.24 0.24 0.23 0.26 0.28 0.22 0.19 0.20 0.19 0.18 0.19 0.20 0.23 0.24 0.27
0.10 0.22 0.23 0.21 0.21 0.28 0.27 0.20 0.17 0.17 0.22 0.27 0.39 0.62 0.68 0.53 0.38 0.39 0.48 0.41 0.35 0.26 0.17 0.18 0.21 0.18 0.17 0.16 0.17 0.18 0.19 0.20 0.21 0.22 0.22 0.20 0.20 0.26 0.32 0.29 0.22 0.19 0.17 0.18 0.19 0.20 0.24 0.27 0.29
0.09 0.14 0.12 0.11 0.14 0.21 0.22 0.16 0.16 0.14 0.18 0.28 0.35 0.67 0.84 0.88 0.64 0.51 0.60 0.62 0.61 0.43 0.27 0.25 0.24 0.22 0.24 0.28 0.24 0.23 0.23 0.24 0.25 0.25 0.25 0.24 0.24 0.25 0.28 0.33 0.29 0.23 0.24 0.25 0.24 0.22 0.24 0.27 0.30
0.03 0.05 0.06 0.07 0.07 0.14 0.16 0.15 0.13 0.15 0.18 0.25 0.33 0.53 0.85 0.79 0.55 0.61 0.91 0.94 1.03 0.82 0.56 0.41 0.32 0.31 0.27 0.26 0.29 0.30 0.29 0.29 0.28 0.28 0.26 0.28 0.29 0.29 0.32 0.32 0.35 0.34 0.37 0.39 0.34 0.32 0.32 0.32 0.32
0.02 0.03 0.04 0.03 0.04 0.07 0.09 0.11 0.11 0.12 0.16 0.31 0.42 0.55 0.70 0.60 0.54 0.65 1.17 1.22 1.18 1.00 0.78 0.63 0.49 0.41 0.36 0.29 0.31 0.39 0.40 0.39 0.37 0.41 0.39 0.41 0.51 0.52 0.58 0.53 0.61 0.60 0.60 0.61 0.57 0.57 0.57 0.54 0.45
0.02 0.01 0.01 0.01 0.02 0.04 0.06 0.11 0.11 0.13 0.27 0.65 0.87 0.85 0.81 0.70 0.77 0.94 1.26 1.12 1.15 1.17 0.98 0.85 0.68 0.53 0.46 0.45 0.56 0.71 0.62 0.62 0.65 0.77 0.77 0.90 1.08 1.05 0.71 0.76 1.02 1.12 1.18 1.14 1.10 1.10 0.92 0.79 0.74
0.02 0.02 0.00 0.01 0.01 0.02 0.04 0.09 0.12 0.16 0.51 0.95 1.22 1.03 0.93 0.99 1.05 1.27 1.57 1.59 1.47 1.54 1.33 1.11 0.94 0.77 0.68 0.81 0.74 0.83 0.95 1.04 1.06 1.11 1.12 1.25 1.21 1.03 0.86 0.97 1.23 1.49 1.56 1.45 1.63 1.68 1.31 1.38 1.60
0.01 0.02 0.01 0.00 0.01 0.02 0.04 0.06 0.11 0.23 0.48 0.68 0.83 0.98 1.08 1.22 1.47 1.66 1.69 1.85 1.80 1.76 1.64 1.59 1.35 1.18 1.23 1.17 0.92 0.88 0.92 1.01 1.15 1.39 1.36 1.43 1.59 1.50 1.42 1.45 1.49 1.64 1.84 2.07 2.06 2.21 2.07 1.99 1.89
0.01 0.02 0.01 0.00 0.01 0.02 0.03 0.06 0.16 0.31 0.42 0.52 0.84 1.18 1.41 1.43 1.72 1.97 2.02 2.26 2.07 1.94 1.89 1.87 1.82 1.65 1.71 1.51 1.31 1.16 1.25 1.26 1.31 1.43 1.55 1.52 1.72 1.87 1.87 1.80 1.76 1.70 1.80 1.97 2.14 2.20 2.53 2.63 2.28
0.00 0.01 0.01 0.01 0.01 0.03 0.07 0.11 0.21 0.36 0.52 0.69 0.92 1.19 1.48 1.73 1.93 2.00 2.32 2.54 2.51 2.34 2.35 2.17 2.10 2.10 2.07 1.96 1.91 1.83 1.63 1.62 1.59 1.55 1.54 1.58 1.78 1.99 2.09 1.97 1.94 1.82 1.79 1.96 2.14 2.31 2.75 2.75 2.59
0.00 0.01 0.03 0.03 0.04 0.06 0.09 0.24 0.38 0.51 0.60 0.73 0.93 1.09 1.42 1.91 2.17 2.17 2.38 2.52 2.48 2.78 2.78 2.76 2.71 2.83 2.75 2.56 2.42 2.24 2.07 1.89 1.85 1.89 1.90 1.81 1.84 1.97 1.97 1.81 1.75 1.79 1.96 2.11 2.14 2.29 2.57 2.31 2.30
0.01 0.08 0.10 0.11 0.09 0.09 0.14 0.42 0.52 0.62 0.63 0.82 1.02 1.18 1.48 1.76 2.08 2.22 2.45 2.63 2.71 3.02 3.14 3.26 3.30 3.27 3.11 3.05 2.95 2.72 2.51 2.32 2.13 2.05 2.09 1.93 1.86 1.87 1.99 1.80 1.68 1.98 2.08 2.16 2.34 2.44 2.45 2.39 2.38
0.04 0.06 0.08 0.11 0.09 0.08 0.14 0.36 0.46 0.62 0.83 1.03 1.20 1.30 1.40 1.66 1.97 2.32 2.58 2.91 3.21 3.48 3.69 3.82 3.83 3.68 3.42 3.39 3.33 3.17 2.98 2.64 2.30 2.12 2.03 1.90 1.86 1.93 2.16 2.10 2.15 2.31 2.35 2.34 2.24 2.49 2.47 2.38 2.35
0.03 0.05 0.07 0.10 0.09 0.09 0.19 0.41 0.47 0.64 0.90 0.99 1.26 1.41 1.49 1.58 2.02 2.44 2.63 3.05 3.52 3.98 4.34 4.15 4.02 4.15 4.00 3.80 3.60 3.29 2.85 2.47 2.33 2.25 2.05 1.95 1.96 2.05 2.35 2.18 2.14 2.28 2.39 2.38 2.34 2.32 2.33 2.13 2.10
0.03 0.06 0.09 0.12 0.10 0.12 0.23 0.49 0.69 0.82 1.08 1.08 1.12 1.28 1.42 1.55 1.84 2.21 2.49 3.07 3.67 4.01 4.40 4.53 4.48 4.32 4.05 3.62 3.26 3.00 2.75 2.59 2.35 2.18 2.08 1.97 1.89 1.98 2.26 2.14 2.21 2.19 2.18 2.18 2.22 2.24 2.09 1.76 1.95
0.04 0.07 0.09 0.14 0.13 0.17 0.33 0.54 0.80 0.82 0.92 0.99 0.91 0.97 1.15 1.52 1.76 2.24 2.48 2.69 3.18 3.69 4.13 4.40 4.51 4.34 3.94 3.48 3.19 3.01 2.93 2.59 2.28 2.22 2.20 2.02 2.05 2.05 2.06 2.12 2.08 2.08 2.14 2.06 2.03 2.11 1.92 1.59 1.71
0.06 0.07 0.09 0.10 0.12 0.24 0.35 0.73 0.98 0.87 0.84 0.89 0.90 0.97 1.14 1.60 2.03 2.26 2.39 2.52 2.77 3.20 3.49 3.59 3.72 3.66 3.44 3.40 3.29 3.12 3.06 2.68 2.50 2.48 2.44 2.26 2.24 2.18 2.15 2.09 1.97 1.84 1.73 1.70 1.76 1.83 1.80 1.62 1.55
0.08 0.06 0.05 0.07 0.14 0.34 0.38 0.83 1.25 1.08 0.93 1.00 1.08 1.05 1.32 1.65 1.67 1.76 2.03 2.31 2.52 2.75 3.07 3.30 3.33 3.25 3.12 3.14 3.05 2.85 2.61 2.47 2.52 2.71 2.65 2.39 2.17 1.98 1.77 1.64 1.64 1.61 1.55 1.51 1.38 1.44 1.51 1.43 1.32
0.06 0.05 0.06 0.09 0.16 0.32 0.40 0.61 1.10 1.13 1.17 1.08 1.10 1.23 1.44 1.42 1.40 1.47 1.66 1.95 2.06 2.35 2.61 2.88 3.12 3.18 3.07 3.04 2.91 2.85 2.67 2.59 2.56 2.48 2.37 2.15 1.92 1.66 1.40 1.31 1.33 1.32 1.30 1.25 1.19 1.22 1.15 1.12 1.12
0.05 0.06 0.12 0.18 0.31 0.65 0.52 0.52 0.94 1.11 1.00 0.92 0.98 1.03 1.22 1.22 1.23 1.39 1.53 1.73 1.82 1.95 2.08 2.21 2.44 2.67 2.75 2.75 2.68 2.60 2.46 2.37 2.26 2.07 1.87 1.67 1.53 1.31 1.10 1.01 1.07 1.13 1.18 1.13 1.07 1.08 1.02 1.05 1.16
0.06 0.09 0.39 0.74 0.98 1.03 0.56 0.60 1.04 0.90 0.72 0.73 0.88 0.90 0.85 0.90 0.95 1.15 1.25 1.34 1.45 1.53 1.58 1.69 1.91 2.20 2.28 2.23 2.22 2.22 2.15 2.07 1.94 1.85 1.69 1.48 1.29 1.06 0.99 0.94 0.99 1.04 1.10 1.01 0.98 0.97 1.01 1.11 1.20
0.08 0.09 0.34 0.62 0.75 0.82 0.67 1.01 1.45 0.97 0.74 0.78 0.81 0.78 0.73 0.73 0.71 0.84 1.02 1.20 1.26 1.27 1.33 1.44 1.69 1.86 1.90 1.81 1.87 1.93 1.89 1.88 1.76 1.78 1.58 1.34 1.19 1.10 1.12 1.04 0.96 0.92 0.94 0.90 0.99 0.94 0.94 1.05 1.13
0.09 0.08 0.14 0.28 0.37 0.59 0.83 1.12 1.17 0.72 0.63 0.72 0.73 0.71 0.74 0.73 0.69 0.72 0.77 0.91 0.97 0.99 1.06 1.16 1.46 1.66 1.71 1.67 1.70 1.74 1.76 1.69 1.54 1.46 1.36 1.18 1.16 1.13 1.24 1.18 1.10 1.02 1.00 1.03 1.10 1.12 1.15 1.27 1.30
0.10 0.11 0.16 0.22 0.35 0.57 0.79 1.09 1.24 0.86 0.70 0.52 0.46 0.49 0.45 0.46 0.49 0.52 0.50 0.55 0.67 0.81 0.96 1.07 1.17 1.35 1.49 1.48 1.47 1.46 1.57 1.51 1.39 1.36 1.23 1.04 0.97 0.99 1.13 1.18 1.14 1.09 1.06 1.10 1.20 1.28 1.43 1.54 1.54
0.13 0.11 0.13 0.17 0.20 0.38 0.79 1.02 0.82 0.68 0.57 0.52 0.47 0.50 0.42 0.35 0.35 0.40 0.45 0.50 0.63 0.74 0.85 0.97 1.02 1.14 1.26 1.29 1.32 1.31 1.28 1.32 1.31 1.21 1.07 1.02 1.00 0.96 0.96 1.02 1.08 1.09 1.10 1.14 1.20 1.24 1.45 1.55 1.53
0.14 0.11 0.13 0.17 0.17 0.24 0.43 0.64 0.51 0.57 0.57 0.50 0.48 0.55 0.56 0.50 0.43 0.43 0.50 0.54 0.64 0.73 0.78 0.81 0.85 0.95 1.09 1.23 1.40 1.46 1.39 1.34 1.25 1.10 1.02 1.02 1.01 0.99 1.00 1.04 1.05 0.98 0.96 1.06 1.10 1.16 1.31 1.38 1.36